Lapse_Rate
8.1 8.0 7.8 7.7 7.3 7.1 7.1 7.1 6.7 6.3 5.4 5.6 5.8 4.1 2.8 2.4 2.3 4.8 8.4 5.4 8.1 7.6 7.8 7.9 8.1 7.4 7.5 7.3 6.5 7.1 6.9 7.0 6.6 6.5 6.5 6.5 6.5 6.5 6.5 6.5 6.5 6.5 6.5 6.5 6.5 6.5 6.5 7.0 6.8 6.5 6.7 7.3 7.4 7.5
7.2 7.2 6.9 6.5 6.7 6.7 7.1 6.4 5.1 6.0 5.3 3.8 3.8 3.1 2.4 1.9 1.7 3.2 7.7 5.5 7.7 8.1 8.0 8.7 6.6 5.5 7.3 8.2 7.6 7.6 6.9 7.0 7.1 6.5 6.5 6.5 6.5 6.5 6.5 6.5 6.5 6.5 6.5 6.5 6.5 6.5 6.8 7.3 7.0 7.6 7.7 7.4 7.5 7.6
6.6 6.6 6.7 6.2 6.0 6.3 6.7 5.7 4.4 3.9 3.6 2.9 2.3 2.3 2.1 1.3 1.6 3.2 8.0 6.7 7.7 7.9 8.2 8.2 7.9 6.9 6.3 5.7 6.0 7.2 7.5 7.8 7.5 7.6 6.8 6.5 6.5 6.5 6.5 6.5 6.5 6.5 6.9 6.5 6.5 6.5 6.7 7.2 7.7 7.9 8.0 7.8 8.1 8.2
6.4 6.2 5.5 5.9 5.8 5.0 4.5 4.0 3.3 2.9 2.4 1.8 2.0 1.9 1.1 0.4 1.5 2.8 9.1 6.2 8.2 6.6 5.8 7.3 8.3 8.4 6.0 6.3 7.1 6.7 7.4 6.4 7.6 8.0 6.8 6.5 6.5 7.0 6.5 6.5 6.5 6.7 6.7 6.5 6.5 6.7 7.0 7.4 7.7 7.9 8.1 8.2 8.2 8.4
4.7 4.8 4.7 4.2 3.8 3.5 3.1 2.0 1.5 1.2 1.2 1.4 1.3 1.0 0.6 0.1 2.4 6.3 6.9 5.0 5.5 7.9 6.7 7.1 8.5 7.9 8.5 8.1 8.0 7.0 7.4 7.2 7.6 6.8 6.5 6.5 6.9 6.7 6.7 6.5 6.5 7.0 6.5 6.5 6.5 7.0 7.0 7.1 8.0 8.2 8.0 8.0 8.3 8.2
3.6 3.6 3.4 3.2 2.8 2.5 1.9 1.4 1.1 0.8 0.4 0.4 0.4 0.4 -0.1 0.4 3.0 9.0 7.2 5.6 4.8 7.2 7.6 6.5 8.4 8.3 8.7 8.8 8.5 8.4 8.4 8.0 7.8 7.2 6.4 7.3 7.7 6.9 6.5 6.5 6.9 7.4 7.7 7.7 7.0 7.9 7.9 8.0 8.3 8.5 8.2 8.4 8.5 8.5
3.1 3.0 2.7 2.3 2.1 1.9 1.5 0.8 0.6 0.4 0.2 -0.0 -0.1 0.2 0.3 1.5 7.5 7.6 6.4 3.4 -0.3 5.9 6.3 6.6 6.6 8.2 8.5 8.6 8.0 8.3 8.4 8.1 7.8 7.4 6.8 7.0 7.2 7.0 6.5 6.5 7.0 7.5 7.8 7.9 8.2 8.1 7.5 8.0 7.8 8.5 8.6 8.7 8.3 8.2
1.8 2.0 1.7 1.8 2.2 2.1 1.7 -0.6 -0.4 -0.3 -0.1 0.5 0.9 1.4 1.9 2.4 1.4 6.0 1.9 -0.6 1.6 6.1 8.1 6.5 6.5 6.8 8.2 6.9 6.9 8.2 7.3 7.8 7.7 7.4 7.3 6.8 7.2 6.9 6.5 6.9 7.4 7.8 7.9 7.9 8.1 8.3 8.2 8.4 8.5 8.5 8.5 7.5 8.0 8.0
1.1 1.8 1.8 2.2 1.5 2.1 2.1 0.9 0.3 0.7 1.2 1.1 1.4 3.0 7.1 6.3 6.1 4.5 -1.1 1.7 4.3 6.9 6.7 6.7 6.5 6.5 8.1 7.3 7.4 7.3 7.8 6.5 7.6 6.5 6.6 6.9 6.5 6.5 6.6 7.0 7.3 7.7 7.6 7.7 8.2 8.3 8.4 8.1 8.0 8.2 8.4 8.2 7.4 7.2
1.3 1.6 1.8 1.7 1.4 1.8 2.0 2.3 1.8 1.7 1.6 1.6 8.4 7.6 6.1 4.4 0.5 2.4 4.9 5.8 6.6 7.4 7.7 6.5 7.4 6.5 7.5 6.7 6.9 6.8 6.9 6.5 6.5 6.6 7.4 6.5 6.5 7.3 7.7 7.9 8.0 8.1 8.2 8.2 7.4 7.4 7.6 7.6 7.8 8.0 8.1 8.4 8.5 8.4
1.6 1.2 1.2 1.3 1.3 0.9 0.5 0.9 0.8 0.7 0.7 6.4 6.3 6.3 5.3 2.1 4.8 6.3 6.7 6.6 6.9 6.4 7.3 7.1 7.0 6.6 7.6 6.5 6.5 6.7 6.5 6.5 6.5 6.5 6.5 6.5 6.5 6.8 7.8 7.9 8.1 8.3 8.5 8.4 8.4 8.2 8.4 8.4 8.2 8.2 8.2 8.2 6.9 6.7
1.8 1.4 1.1 0.9 0.5 0.7 0.6 0.3 1.4 2.8 2.3 3.2 4.7 5.2 5.8 6.4 7.4 6.5 6.5 6.6 6.5 6.5 7.0 6.8 6.8 7.3 6.9 7.8 6.7 6.7 6.5 6.5 6.5 6.9 6.5 6.5 6.5 7.3 7.3 7.3 7.8 8.4 8.4 8.4 8.5 8.4 8.4 8.4 8.6 7.2 6.6 5.9 4.4 4.5
1.5 1.1 0.8 0.6 0.8 1.1 0.6 0.2 -0.5 0.1 0.9 4.8 4.4 2.3 7.2 6.7 6.5 6.5 6.5 6.5 6.5 6.8 6.5 6.7 6.5 7.0 7.3 7.5 6.8 6.5 6.5 6.5 6.9 6.5 6.5 6.5 7.0 7.2 7.4 7.9 8.1 8.4 8.4 8.4 8.5 8.7 8.6 7.1 5.4 5.3 5.1 3.8 4.5 6.4
1.9 1.7 1.0 0.6 0.6 0.5 0.4 0.9 1.8 2.8 4.6 4.2 6.5 6.5 6.5 6.5 6.5 6.5 6.5 6.5 6.2 5.9 6.5 6.7 6.7 6.6 6.6 6.5 6.4 6.5 6.5 6.5 6.5 6.5 6.5 6.5 6.9 6.9 7.6 8.2 8.2 8.3 7.0 8.2 8.2 6.6 5.6 4.4 3.9 3.7 3.7 3.8 3.9 4.1
2.7 1.8 1.6 1.2 1.7 1.7 1.6 1.8 2.6 2.5 4.3 6.9 7.0 6.5 6.5 6.9 6.5 6.1 5.7 6.3 5.6 5.6 6.4 6.9 6.9 7.0 6.5 6.5 6.5 6.5 6.5 6.5 6.5 6.5 6.5 6.7 6.3 6.4 7.3 8.1 8.2 7.1 5.2 7.9 8.0 5.7 4.7 5.3 4.9 4.8 4.0 4.0 3.9 3.5
3.9 4.5 2.6 2.0 2.1 2.1 2.6 3.1 3.6 4.5 6.0 7.1 6.8 6.6 6.5 6.5 6.5 6.2 5.9 6.2 5.2 5.0 5.3 6.7 6.4 6.5 6.5 6.5 6.5 6.5 6.5 6.5 6.5 6.5 6.6 5.9 5.8 6.3 7.2 8.2 8.3 8.3 8.4 8.4 7.5 6.3 5.2 4.5 4.9 5.2 4.7 4.1 4.0 3.8
4.2 4.6 1.8 1.9 2.4 3.3 3.8 3.0 4.1 6.3 6.9 7.1 6.9 5.9 6.3 6.4 6.7 6.4 5.8 5.5 4.6 5.6 6.5 6.7 6.5 6.5 6.5 6.5 6.5 6.5 6.5 6.5 6.8 6.5 6.4 5.7 5.6 6.2 8.0 7.5 7.0 7.7 8.4 8.3 7.5 6.3 5.1 4.6 5.0 5.6 6.2 5.7 5.8 6.4
4.0 4.0 1.5 1.7 3.4 3.8 3.2 7.2 7.5 7.6 6.8 7.1 6.9 6.8 6.9 6.0 6.7 6.8 6.6 6.5 6.9 6.8 6.8 6.6 7.0 6.5 6.5 6.5 6.5 6.6 7.0 6.3 6.5 7.1 7.3 7.1 6.2 6.2 6.8 7.5 8.5 8.4 6.8 5.3 5.3 5.6 5.5 6.2 7.9 8.5 7.2 7.1 8.1 9.0
1.9 1.6 0.9 1.4 3.4 4.3 6.5 7.1 8.3 6.9 6.9 6.9 6.7 6.6 6.6 6.4 6.9 5.9 5.2 6.8 8.0 8.0 7.5 7.1 6.5 6.5 6.5 6.9 6.9 6.9 6.5 6.5 6.8 6.0 5.5 6.0 6.2 6.8 7.5 8.2 7.8 6.5 6.9 7.8 8.5 8.7 7.9 5.8 6.6 7.7 7.2 7.4 7.4 8.9
1.6 1.2 0.3 1.8 4.2 6.1 7.3 7.6 8.8 7.5 6.9 7.1 7.4 7.3 7.5 7.5 6.3 5.7 5.2 6.0 7.8 7.5 7.0 6.5 6.5 6.9 7.0 6.9 6.2 6.5 7.0 6.0 5.4 5.8 5.3 5.2 5.6 6.3 7.1 7.3 7.9 8.3 8.4 6.4 6.1 6.9 8.8 8.9 8.3 6.8 5.7 6.5 8.0 8.3
4.3 3.1 2.6 3.8 5.9 7.1 7.9 7.7 7.6 7.8 7.8 7.4 7.3 7.5 7.4 7.6 7.3 7.2 7.2 8.0 7.0 7.0 6.8 7.1 7.0 6.8 5.9 6.0 6.1 6.2 5.5 6.2 6.8 7.0 7.3 7.4 7.7 7.4 7.2 7.3 7.9 8.2 8.2 8.4 8.5 7.5 6.6 7.0 6.2 5.7 6.1 8.0 7.2 8.9
3.9 2.3 4.0 5.0 6.4 6.5 8.0 8.3 7.8 8.2 7.7 7.5 7.5 7.6 7.1 6.8 7.0 7.3 7.8 7.1 7.1 7.3 7.2 7.3 7.3 6.8 7.7 5.6 4.9 5.0 5.7 5.7 5.2 4.5 4.4 5.6 6.8 7.0 7.1 7.4 7.5 6.9 6.8 7.5 7.5 6.0 6.1 5.0 4.3 4.9 6.2 7.5 8.7 9.1
2.8 4.3 4.5 4.8 5.5 7.0 7.1 8.5 7.2 7.5 6.5 6.8 7.3 6.7 6.7 6.9 7.4 8.2 7.0 7.3 7.5 8.0 7.9 7.9 7.7 7.4 7.6 7.0 5.9 5.0 5.5 6.1 6.2 5.5 5.5 5.4 5.7 5.1 4.8 4.7 5.4 6.6 7.3 5.9 5.5 5.0 5.0 3.9 5.4 5.0 8.2 8.7 9.0 9.0
3.6 3.5 4.4 6.5 7.3 6.7 7.6 7.1 7.7 7.2 7.2 6.7 6.5 6.5 6.6 6.9 7.7 7.0 6.5 7.2 7.7 8.1 7.9 8.0 7.9 7.8 7.8 6.6 6.5 6.3 6.8 5.4 5.5 6.1 6.3 5.6 4.7 4.4 4.2 3.8 3.8 4.1 4.5 4.5 4.4 4.9 6.3 6.3 6.0 8.6 8.7 8.7 8.9 8.7
5.9 6.6 6.9 6.7 7.4 6.9 6.5 6.5 6.6 6.6 6.5 6.5 6.5 6.5 6.6 7.3 6.5 6.5 6.5 7.1 7.6 7.6 7.8 7.8 8.1 7.9 7.7 7.8 7.8 5.6 4.7 5.3 4.9 4.3 5.5 6.6 5.9 5.6 5.6 5.2 4.1 3.3 3.5 4.2 5.1 5.5 7.3 6.5 7.6 8.2 7.9 8.8 8.7 8.7
6.5 7.1 6.8 6.8 6.8 6.6 6.6 6.5 6.5 6.5 6.5 6.5 6.5 7.0 7.2 6.6 6.5 6.5 6.6 7.4 7.7 7.9 7.8 7.7 7.6 7.9 7.9 7.5 7.9 6.8 5.3 6.2 6.6 5.1 4.6 5.0 5.5 6.1 6.7 7.6 8.3 7.9 4.2 4.3 4.5 5.1 6.6 7.1 6.7 6.6 8.4 8.8 8.7 8.8
6.5 6.6 7.4 7.9 7.5 7.4 6.9 7.1 7.3 6.7 6.5 6.5 6.5 6.6 6.5 6.5 6.5 6.8 7.7 8.0 7.9 7.3 6.8 6.3 8.0 8.3 8.3 8.0 6.1 5.3 5.1 5.0 4.9 4.9 4.7 4.5 4.1 4.1 4.3 4.8 4.9 4.5 4.2 4.4 4.3 4.8 4.9 5.3 6.5 7.6 8.7 9.0 9.0 9.0
7.3 7.3 6.5 7.1 7.2 7.4 6.6 6.6 6.5 6.5 6.5 7.2 7.0 6.5 6.5 6.5 6.5 7.7 8.1 8.2 7.7 7.2 6.4 5.7 5.3 5.5 5.8 5.9 6.5 7.1 7.2 5.8 4.6 5.1 5.2 5.2 4.7 4.3 3.4 4.1 3.3 2.6 3.2 3.7 3.6 3.9 4.6 5.3 7.5 8.9 8.9 8.8 8.7 9.0
7.2 7.1 7.4 6.7 7.0 7.1 7.0 6.7 6.8 7.3 7.8 7.4 6.6 6.5 7.0 7.9 8.1 8.1 8.1 7.6 7.6 8.2 8.3 8.1 6.7 6.4 6.3 6.0 5.3 5.3 5.3 5.5 7.3 6.9 7.9 8.1 8.4 8.4 5.7 4.9 5.2 5.1 4.7 4.9 5.4 5.1 5.4 5.1 6.2 6.4 6.0 6.8 8.0 8.8
7.1 7.0 7.1 6.9 6.6 6.5 7.1 7.4 7.3 7.2 8.0 7.8 8.0 8.0 8.1 8.2 7.7 7.4 8.0 7.9 7.9 6.8 6.2 6.2 6.6 7.7 7.7 8.6 8.2 5.7 4.2 3.8 3.4 4.3 5.8 6.5 6.6 6.0 6.0 7.1 6.9 6.8 5.6 5.9 5.7 6.3 7.1 6.6 7.2 8.7 8.8 8.8 8.9 7.7
7.6 7.6 7.1 7.1 6.8 7.3 7.2 6.6 7.4 7.4 7.7 7.8 7.7 7.7 7.7 8.1 8.1 6.7 6.3 6.4 6.6 7.2 8.4 8.3 6.7 6.6 6.1 5.5 5.7 6.1 7.6 4.9 3.2 3.5 3.4 4.1 5.1 6.2 8.2 6.9 6.5 6.2 5.6 6.2 6.2 6.6 6.9 5.7 7.8 8.7 8.7 8.2 7.1 6.1
7.6 7.2 7.0 6.5 6.9 7.5 7.6 7.6 7.5 7.4 7.6 7.5 7.6 7.9 7.9 7.7 7.5 8.3 6.2 7.6 8.6 8.3 5.4 8.0 8.4 6.1 4.8 4.8 4.5 4.8 1.6 4.1 4.8 4.3 4.0 4.6 5.2 6.1 5.9 6.0 6.2 6.4 6.6 5.9 5.9 7.3 7.6 6.4 6.5 7.2 7.7 7.1 6.0 4.9
7.4 7.5 7.5 7.3 7.1 7.1 7.6 7.6 7.3 7.1 7.4 7.3 7.5 7.7 7.8 7.6 7.2 8.2 6.7 6.4 6.4 6.7 6.3 6.1 6.0 5.7 4.8 4.0 4.6 4.5 4.7 5.5 4.1 3.6 3.5 3.4 2.5 3.1 3.4 5.2 6.3 6.5 6.2 6.2 6.3 7.0 7.3 7.1 6.1 6.1 5.5 5.2 4.9 4.6
Wind_Speed
21 20 19 18 17 18 18 19 20 19 17 28 31 29 29 27 24 15 4 4 4 6 7 3 7 12 13 12 7 9 7 2 3 3 3 3 1 4 2 2 5 6 6 3 3 3 5 5 6 1 5 6 7 8
17 15 15 15 14 16 17 19 18 21 25 23 25 26 25 23 22 23 3 1 5 4 6 5 6 7 3 6 7 12 4 10 7 4 1 2 2 2 0 3 3 4 4 1 6 1 4 4 4 5 5 8 8 9
13 12 13 11 21 20 20 20 24 24 24 23 22 22 23 22 21 20 3 3 4 4 5 5 5 6 5 5 6 5 3 5 5 3 4 2 3 5 4 5 3 4 2 3 1 2 3 5 6 3 4 6 8 10
18 18 16 15 13 14 16 19 18 19 20 20 20 22 20 20 19 22 4 1 3 5 4 4 3 3 5 3 4 3 8 6 9 5 3 3 3 4 4 1 2 3 6 5 6 10 5 5 3 6 9 10 10 9
22 21 18 15 14 13 13 13 14 15 16 18 19 19 18 20 24 8 2 3 4 1 4 5 7 5 3 3 6 6 11 9 5 3 2 2 3 4 2 0 3 4 2 3 4 7 5 7 10 9 7 9 9 8
21 20 18 16 15 14 13 13 14 14 15 16 17 18 19 20 25 6 3 3 4 3 4 4 3 4 6 9 9 9 6 4 3 4 2 3 2 3 4 4 5 4 4 4 4 9 7 7 10 10 10 10 11 12
20 19 19 17 15 14 12 12 14 16 18 18 19 20 22 24 14 4 1 3 3 2 3 4 4 4 2 4 2 4 4 3 1 3 3 3 3 3 3 3 6 3 4 1 6 8 6 10 7 8 10 13 17 16
22 20 21 19 18 18 17 16 19 22 22 21 21 22 21 23 16 4 5 8 6 3 3 4 3 3 3 2 3 3 2 2 5 3 2 3 3 1 3 6 3 5 4 8 5 5 7 8 10 11 12 12 13 13
24 20 17 19 18 19 20 21 23 24 23 21 20 21 8 3 2 3 5 10 4 3 1 2 6 4 3 3 2 2 2 3 1 2 2 3 2 4 4 3 3 5 3 2 6 8 10 12 11 11 12 12 12 8
22 19 15 17 14 16 16 14 10 14 14 9 8 4 3 2 6 3 9 2 1 2 3 3 2 4 0 2 2 2 2 3 2 1 3 2 3 4 3 4 3 4 4 7 7 8 9 11 10 10 10 7 8 9
20 19 21 17 21 21 15 12 8 12 7 2 3 3 4 0 4 2 2 1 1 2 3 3 2 4 2 2 3 2 3 1 4 3 3 4 3 5 4 5 4 5 9 10 13 12 10 11 10 8 8 9 8 8
22 22 22 22 22 23 23 18 4 6 3 4 7 5 3 1 4 4 1 0 2 2 2 2 3 3 2 1 3 2 3 2 3 4 3 3 4 9 7 7 8 10 13 14 13 12 10 9 9 8 7 7 5 4
24 26 26 24 22 20 20 17 17 15 1 3 3 4 2 2 4 2 3 2 2 1 1 2 3 2 3 3 3 2 3 2 3 2 3 3 8 8 9 10 12 12 12 12 11 10 10 10 9 7 7 5 5 6
20 23 28 28 24 22 21 19 13 4 5 5 4 5 5 3 4 3 3 3 2 2 1 4 3 2 1 3 1 4 2 1 3 3 3 4 7 9 9 9 11 11 6 8 9 9 8 8 8 7 7 6 5 7
20 22 21 27 20 17 16 18 21 6 5 5 5 4 4 2 3 2 1 2 3 2 2 3 3 2 2 3 2 4 3 3 4 0 2 5 9 8 9 11 10 9 4 6 8 8 6 7 6 8 7 7 7 6
5 4 13 23 16 18 10 6 6 3 3 4 6 3 1 2 4 3 4 3 4 2 2 3 2 2 2 2 3 3 2 2 2 3 3 7 8 7 8 9 8 6 6 7 7 8 8 6 6 6 5 6 5 6
12 5 20 15 9 10 18 4 4 6 4 4 3 3 2 4 4 2 2 2 3 2 2 2 2 4 1 2 2 3 3 3 4 4 4 6 9 8 8 8 6 6 7 8 8 7 7 5 4 4 5 7 6 5
6 8 17 13 5 5 3 5 4 4 6 5 4 3 3 3 2 3 3 5 2 2 1 2 0 0 3 2 3 2 3 2 4 5 6 8 7 7 6 8 8 8 8 7 7 6 5 3 3 4 5 6 6 6
9 14 20 17 7 4 4 5 4 4 5 2 2 2 2 2 4 3 3 3 3 2 3 1 2 3 3 4 4 3 3 1 3 3 4 5 6 6 6 8 8 8 7 6 5 4 5 6 4 4 4 5 5 6
7 23 26 17 9 4 5 4 3 4 4 3 3 4 3 3 2 3 4 5 4 2 4 4 4 3 4 4 5 4 2 4 5 4 4 3 4 7 8 7 5 7 6 7 5 3 3 3 4 4 5 5 5 6
6 10 12 7 4 7 5 3 5 3 3 3 1 2 3 2 4 4 4 6 5 4 3 3 4 4 5 6 6 5 5 2 1 2 5 6 5 6 6 6 5 4 4 4 3 4 4 4 4 5 4 5 5 5
5 10 3 7 4 4 5 6 3 2 3 3 2 2 3 2 3 4 4 4 4 5 4 4 7 5 6 9 8 9 7 5 7 7 12 9 6 6 6 5 5 6 5 5 4 4 4 4 4 5 5 5 6 6
5 5 4 6 5 5 3 3 4 4 2 2 1 2 3 2 3 3 3 4 3 5 6 5 6 8 7 8 10 12 12 10 7 7 8 8 8 7 7 7 6 5 4 5 4 4 4 4 4 5 5 6 6 6
5 5 6 5 6 4 2 4 2 2 2 2 2 2 2 2 3 3 4 3 5 6 7 9 4 3 5 8 8 8 7 7 7 8 6 6 7 7 6 6 6 5 4 3 4 4 4 4 5 5 6 7 7 7
5 7 5 7 4 3 3 3 3 3 3 3 2 3 2 2 1 3 2 2 5 6 7 6 7 7 5 6 6 7 10 7 6 7 6 5 5 5 5 5 5 5 5 4 4 5 5 5 5 6 7 7 8 8
7 8 5 4 3 3 3 2 3 3 2 2 3 2 1 1 2 3 2 3 4 5 6 7 6 5 6 7 6 6 7 5 5 6 6 6 6 5 4 3 3 3 5 5 5 6 7 6 7 8 8 9 8 9
5 5 4 2 2 3 3 3 2 2 2 3 2 1 1 1 2 3 3 4 3 4 5 6 6 6 5 5 6 6 6 7 7 6 5 5 6 6 5 5 4 5 5 5 6 6 7 8 8 8 8 8 8 7
4 5 3 3 3 3 3 2 2 2 2 2 2 2 2 5 3 3 4 4 4 4 5 5 6 6 6 6 5 4 4 4 4 3 4 4 4 4 4 4 3 3 5 5 5 6 7 8 8 9 9 8 8 7
4 3 2 4 3 3 3 2 2 2 3 3 3 2 3 3 3 3 3 3 2 2 3 4 4 3 4 4 5 5 5 5 5 4 4 3 3 3 5 4 5 5 6 6 7 6 8 8 8 8 8 7 7 7
4 4 2 2 2 2 2 4 3 3 4 4 3 3 3 3 4 4 4 4 4 4 4 4 4 4 4 3 3 4 5 5 6 5 5 4 5 5 5 5 6 6 6 6 7 8 8 7 8 6 5 6 6 6
3 3 2 3 2 2 3 3 2 3 3 3 4 4 4 3 3 5 5 4 4 3 3 4 4 5 5 5 5 4 3 4 5 5 4 4 5 5 5 6 7 8 6 7 7 7 7 7 7 7 7 7 7 7
3 4 3 2 2 2 3 3 2 0 3 2 2 2 3 3 3 3 4 5 3 4 4 4 4 4 4 3 3 2 1 4 5 5 7 6 6 8 9 10 10 8 7 7 8 8 8 8 7 8 7 8 8 8
1 2 2 2 1 1 3 3 1 1 2 2 3 2 3 4 4 3 3 6 5 4 4 4 4 3 3 3 4 4 4 6 7 8 9 9 9 9 10 10 10 8 9 8 8 8 9 9 8 8 8 7 7 8
Wind_Direction
175 179 185 195 196 189 188 185 187 189 173 186 181 180 184 190 189 192 265 269 215 136 117 173 197 186 204 201 161 136 141 154 161 155 178 175 150 195 216 204 181 181 173 187 181 208 264 133 142 274 19 320 334 327
173 181 174 182 192 194 189 199 197 184 169 170 173 176 180 183 185 189 250 45 50 108 85 62 48 28 350 260 202 175 209 152 174 161 94 114 133 52 221 235 176 215 226 249 211 228 106 197 335 326 312 308 315 310
154 161 193 213 222 205 178 160 164 171 173 171 167 171 178 171 187 180 244 157 97 100 120 160 145 78 39 353 348 180 202 137 168 37 145 131 150 167 165 223 192 215 175 227 302 162 270 291 294 291 304 296 309 317
198 197 217 169 148 156 150 148 159 162 160 157 164 171 173 170 180 191 236 37 85 79 113 114 154 99 333 265 213 315 122 91 121 148 118 135 128 224 185 292 207 353 163 230 244 280 286 255 13 22 332 320 314 329
101 107 111 111 112 122 134 138 141 147 156 160 167 170 166 167 171 207 93 44 26 37 128 136 123 36 5 168 168 154 147 141 147 126 117 134 120 133 98 125 224 190 266 213 249 37 345 323 2 7 339 10 5 352
92 98 104 110 115 123 132 144 154 158 156 159 162 164 158 158 169 208 159 51 16 17 117 147 94 75 76 97 110 127 131 128 161 115 120 106 79 197 159 199 94 74 33 3 311 339 314 348 60 39 52 38 46 54
86 87 86 86 96 109 122 134 146 149 150 151 152 152 149 157 172 242 42 103 61 348 127 119 126 113 96 137 61 89 77 92 95 113 78 135 133 190 157 215 125 64 357 1 355 321 149 39 58 64 75 77 69 68
71 72 68 72 84 88 87 95 114 125 125 128 129 134 128 105 111 139 51 49 65 329 240 131 97 138 350 79 101 345 75 98 30 88 99 119 110 206 213 104 82 30 323 73 27 45 72 90 79 66 73 90 87 84
57 56 55 63 60 68 71 85 105 111 111 113 116 120 118 34 101 70 321 82 64 286 239 110 148 153 95 75 51 64 40 84 113 106 140 148 156 196 91 108 72 35 30 69 83 86 84 88 98 97 93 88 93 97
52 48 49 54 53 66 73 85 92 107 105 101 111 91 102 50 279 303 31 329 276 43 22 86 81 115 133 151 96 106 31 137 143 121 149 221 148 101 95 87 81 40 40 133 110 108 104 109 108 110 112 118 80 44
53 46 46 50 54 44 46 53 93 133 140 65 76 69 71 248 58 224 161 325 212 105 40 70 111 122 16 122 124 2 121 126 163 148 208 174 198 158 140 107 60 56 68 76 94 118 127 120 117 114 82 57 51 42
60 56 50 44 43 44 31 29 19 60 34 66 85 78 70 196 200 137 83 49 46 88 52 80 79 87 87 357 106 165 114 154 171 137 184 214 123 133 137 126 121 113 112 111 111 111 96 73 74 74 69 60 46 45
54 50 46 41 41 46 44 40 57 89 159 147 90 63 28 297 78 78 145 68 90 44 61 135 93 81 115 71 83 108 139 133 154 160 218 58 139 144 144 144 124 118 113 109 105 95 90 82 68 72 79 46 7 53
45 48 44 35 27 27 38 34 20 339 37 54 54 58 19 39 54 35 17 41 30 324 72 104 78 78 88 75 53 117 60 186 199 219 209 139 145 137 152 140 136 125 93 105 99 96 99 94 83 71 66 50 45 39
52 43 39 18 17 27 37 29 32 51 44 54 32 55 59 64 35 11 344 62 5 340 324 95 74 69 59 106 53 119 142 220 224 306 95 140 139 144 147 152 123 120 119 117 110 100 95 104 97 83 59 47 44 36
18 40 18 357 8 20 29 41 38 62 59 57 39 71 17 91 46 25 14 40 2 340 320 37 78 95 86 86 169 185 208 204 92 84 114 131 138 139 158 131 145 122 121 109 109 110 101 86 83 81 79 51 34 32
52 40 345 347 353 27 34 70 48 52 58 49 43 5 31 72 59 35 8 357 311 22 48 17 53 44 109 153 113 13 34 47 99 107 125 131 139 151 147 118 121 127 122 118 112 103 101 97 101 69 33 26 5 25
48 13 2 1 343 65 46 41 79 66 64 36 66 15 42 32 59 40 25 11 17 59 29 62 46 15 19 47 83 72 88 73 112 124 127 132 125 122 141 145 135 125 112 115 120 118 112 113 71 40 14 6 342 0
43 23 10 12 23 74 60 41 25 82 56 47 52 25 48 51 48 31 355 8 51 50 137 155 44 37 45 38 25 57 96 109 114 81 89 92 127 152 149 112 119 132 140 137 132 103 97 65 49 25 12 358 348 350
14 22 3 5 13 76 69 35 35 67 62 59 35 33 49 45 359 338 4 12 1 49 48 40 34 22 9 9 356 354 51 104 121 119 108 112 119 120 129 138 139 136 122 113 86 40 99 98 48 21 13 352 345 340
27 353 353 13 50 59 69 24 59 50 87 67 56 26 64 52 35 21 18 350 47 23 65 38 36 60 51 35 13 358 8 343 179 187 159 146 132 121 112 105 104 100 101 79 76 80 47 38 17 360 346 346 344 321
3 341 44 25 69 59 64 19 58 78 68 79 70 32 59 51 43 23 333 50 55 31 11 6 17 4 44 38 34 24 13 38 55 63 71 89 109 103 92 86 100 84 71 58 50 42 29 20 11 342 334 340 315 325
339 20 48 27 73 49 49 356 62 8 84 82 156 80 57 62 13 305 79 64 64 8 360 35 50 50 64 61 57 46 38 55 63 65 72 79 79 76 75 62 50 64 76 53 27 22 16 349 358 332 329 328 326 329
38 46 37 41 39 75 69 46 38 57 58 41 72 79 45 31 326 54 67 64 30 14 19 13 6 92 83 63 53 43 46 66 70 62 69 90 90 79 76 75 68 60 39 21 22 359 354 344 334 333 338 322 330 331
63 19 8 49 31 64 58 51 31 50 64 53 66 81 54 322 61 61 75 73 37 29 12 23 41 38 61 74 67 56 38 47 72 75 50 69 101 110 94 86 74 57 24 10 6 344 342 336 331 335 326 321 328 329
69 26 34 29 41 46 43 66 47 47 52 57 61 57 20 57 80 81 71 30 37 27 21 11 14 55 54 33 44 40 27 28 81 82 56 41 41 48 46 36 14 90 25 3 340 332 327 335 329 325 319 322 326 322
61 49 44 32 46 80 91 68 57 52 56 42 49 34 284 148 103 83 116 33 49 43 34 25 28 46 59 68 64 54 47 46 55 74 78 64 55 44 36 25 15 13 338 349 330 328 325 323 321 320 315 315 322 327
56 30 50 21 65 39 85 69 57 59 59 15 290 38 21 21 70 57 50 58 65 69 65 57 51 48 52 47 43 49 54 81 100 105 118 110 78 71 43 23 38 340 323 347 332 320 324 316 309 308 314 319 316 319
48 16 9 35 41 53 43 38 56 57 6 335 344 76 83 59 28 35 41 24 25 51 68 72 72 78 85 81 59 40 33 18 15 18 8 359 4 53 22 356 346 343 340 327 320 318 319 310 311 314 313 308 311 305
33 349 33 49 44 58 65 8 45 75 41 55 95 118 107 95 51 18 37 41 49 55 53 49 39 42 42 35 65 68 54 38 28 13 354 354 351 344 330 330 333 332 326 323 321 320 310 321 303 290 293 309 313 332
349 323 45 28 59 52 26 353 123 104 91 70 39 61 95 120 110 52 44 33 40 34 55 70 66 40 45 35 20 9 26 64 28 9 359 325 318 313 321 332 318 324 316 314 318 313 320 315 313 311 311 318 318 313
21 32 355 345 77 54 14 18 358 312 116 106 90 107 140 158 94 81 16 341 51 63 46 29 43 53 35 26 13 356 345 320 326 347 332 326 314 318 320 319 313 307 308 314 307 304 304 309 307 309 309 310 324 321
28 16 12 349 341 10 40 327 33 94 64 71 71 42 39 23 71 81 89 34 30 32 31 24 17 4 4 332 338 328 309 325 328 306 302 307 300 301 303 302 306 307 307 305 304 301 301 301 304 311 309 309 312 317